�N����,����,�~����,�C��,���x,�C��,����,���ϕ���,�ő�u�ԕ���,�ő厞����,���˗�,�I�_���x,�n�����x,�ő啗���N��,DTYPE
"16/06/06","00:10",0.0,17.3,85.6,1007.8,324.4,1.8,3.1,351.3,0.00,14.9,19.6,"00:00:24",1
"16/06/06","00:20",0.0,17.3,85.8,1007.6,333.8,1.8,4.4,335.1,0.00,14.9,19.7,"00:11:52",1
"16/06/06","00:30",0.0,17.1,86.5,1007.8,330.7,1.6,2.5,331.6,0.00,14.9,19.4,"00:23:04",1
"16/06/06","00:40",0.0,17.0,87.1,1007.6,330.6,1.6,2.9,338.1,0.00,14.9,19.5,"00:31:04",1
"16/06/06","00:50",0.0,16.9,87.4,1008.1,335.1,1.6,2.9,343.5,0.00,14.8,19.4,"00:48:56",1
"16/06/06","01:00",0.0,16.9,87.6,1008.1,335.7,1.7,3.6,345.2,0.00,14.9,19.5,"00:56:00",1
"16/06/06","01:10",0.0,16.8,87.7,1007.8,338.9,1.7,4.2,341.9,0.00,14.8,19.4,"01:00:56",1
"16/06/06","01:20",0.0,16.7,87.9,1007.8,336.5,1.8,3.6,342.4,0.00,14.7,19.4,"01:12:00",1
"16/06/06","01:30",0.0,16.6,88.2,1007.8,338.1,2.0,3.3,343.7,0.00,14.7,19.2,"01:24:16",1
"16/06/06","01:40",0.0,16.6,88.4,1008.3,329.5,1.6,2.9,347.9,0.00,14.7,19.2,"01:39:12",1
"16/06/06","01:50",0.0,16.5,88.6,1008.1,328.8,1.7,3.2,343.8,0.00,14.7,19.0,"01:45:44",1
"16/06/06","02:00",0.0,16.5,88.5,1008.1,338.3,1.7,2.9,356.5,0.00,14.6,19.3,"01:51:36",1
"16/06/06","02:10",0.0,16.4,88.7,1008.1,333.8,1.7,3.2,339.5,0.00,14.6,18.9,"02:00:02",1
"16/06/06","02:20",0.0,16.3,89.0,1008.3,330.6,1.6,3.5,338.5,0.00,14.5,19.1,"02:18:08",1
"16/06/06","02:30",0.0,16.3,89.4,1008.1,328.4,1.6,3.3,349.4,0.00,14.6,18.9,"02:27:12",1
"16/06/06","02:40",0.0,16.3,89.4,1007.8,326.9,1.5,2.1,341.3,0.00,14.6,18.9,"02:32:32",1
"16/06/06","02:50",0.0,16.3,89.6,1008.1,327.8,1.8,2.9,331.7,0.00,14.6,18.9,"02:40:32",1
"16/06/06","03:00",0.0,16.2,89.6,1008.1,321.2,1.6,2.2,320.8,0.00,14.5,18.8,"02:50:32",1
"16/06/06","03:10",0.0,16.1,89.8,1008.1,322.1,1.5,2.2,344.7,0.00,14.5,18.8,"03:00:32",1
"16/06/06","03:20",0.0,16.1,90.0,1007.8,320.5,1.5,2.2,335.8,0.00,14.5,18.8,"03:18:16",1
"16/06/06","03:30",0.0,16.0,90.2,1007.8,324.8,1.6,2.7,315.9,0.00,14.4,18.7,"03:29:20",1
"16/06/06","03:40",0.0,16.1,90.0,1007.6,323.8,1.7,2.4,326.6,0.00,14.5,18.7,"03:30:48",1
"16/06/06","03:50",0.0,16.0,90.2,1008.3,326.9,1.6,2.6,332.7,0.00,14.4,18.7,"03:42:32",1
"16/06/06","04:00",0.0,15.9,90.3,1008.1,316.0,1.3,2.4,320.4,0.00,14.4,18.5,"03:54:40",1
"16/06/06","04:10",0.0,15.9,90.5,1008.3,312.8,1.1,1.7,308.6,0.00,14.4,18.8,"04:00:16",1
"16/06/06","04:20",0.0,15.8,90.6,1008.3,322.0,1.2,2.0,344.5,0.00,14.3,18.7,"04:15:12",1
"16/06/06","04:30",0.0,15.8,90.9,1008.3,322.8,1.3,2.4,331.5,0.00,14.4,18.5,"04:27:52",1
"16/06/06","04:40",0.0,15.9,91.0,1008.6,322.6,1.3,2.5,324.0,0.00,14.5,18.5,"04:34:56",1
"16/06/06","04:50",0.0,15.8,91.1,1008.6,327.3,1.5,2.6,352.6,0.00,14.4,18.3,"04:43:04",1
"16/06/06","05:00",0.0,15.8,91.2,1008.8,328.8,1.6,3.1,340.9,0.00,14.4,18.6,"04:56:00",1
"16/06/06","05:10",0.0,15.9,91.1,1008.8,332.0,1.6,3.4,344.3,0.00,14.5,18.3,"05:08:00",1
"16/06/06","05:20",0.0,16.1,90.7,1008.8,333.6,1.6,2.9,336.7,0.00,14.6,18.3,"05:15:52",1
"16/06/06","05:30",0.0,16.1,90.5,1009.0,334.7,1.7,2.9,347.0,0.00,14.6,18.5,"05:24:40",1
"16/06/06","05:40",0.0,16.2,90.4,1009.0,331.2,1.6,2.7,345.7,0.01,14.7,18.5,"05:37:28",1
"16/06/06","05:50",0.0,16.5,90.1,1009.0,330.1,1.6,2.7,345.2,0.02,14.9,18.3,"05:40:32",1
"16/06/06","06:00",0.0,17.1,88.9,1009.3,337.8,1.6,2.8,353.3,0.04,15.3,18.5,"05:54:24",1
"16/06/06","06:10",0.0,17.4,87.0,1009.5,344.1,1.2,2.2,353.8,0.04,15.3,18.6,"06:05:52",1
"16/06/06","06:20",0.0,17.9,85.0,1009.7,352.3,1.3,3.4,339.8,0.06,15.4,18.5,"06:16:32",1
"16/06/06","06:30",0.0,18.4,83.2,1009.5,354.9,1.6,2.7,355.9,0.08,15.5,18.6,"06:23:20",1
"16/06/06","06:40",0.0,19.0,82.6,1010.0,340.8,1.6,2.8,336.8,0.11,16.0,18.5,"06:31:36",1
"16/06/06","06:50",0.0,19.6,79.4,1009.5,323.6,1.1,2.4,341.5,0.13,16.0,18.8,"06:43:44",1
"16/06/06","07:00",0.0,20.0,77.6,1009.7,322.9,1.0,2.0,344.8,0.13,16.0,18.7,"06:54:40",1
"16/06/06","07:10",0.0,20.4,76.1,1009.5,329.5,0.5,1.6,353.4,0.13,16.1,18.7,"07:01:20",1
"16/06/06","07:20",0.0,20.7,73.6,1009.7,12.3,0.8,1.3,12.5,0.22,15.9,19.1,"07:11:04",1
"16/06/06","07:30",0.0,20.9,74.7,1009.3,11.4,0.5,1.4,359.7,0.19,16.3,19.3,"07:21:52",1
"16/06/06","07:40",0.0,21.0,72.4,1009.0,88.3,0.5,1.4,61.5,0.21,15.9,19.6,"07:38:40",1
"16/06/06","07:50",0.0,21.7,70.4,1009.0,328.5,0.5,1.1,83.1,0.25,16.1,19.5,"07:43:28",1
"16/06/06","08:00",0.0,21.9,68.0,1008.6,11.9,0.6,1.6,352.4,0.27,15.8,19.6,"07:54:56",1
"16/06/06","08:10",0.0,22.2,67.7,1008.6,13.9,0.3,1.4,350.8,0.27,16.0,20.0,"08:00:40",1
"16/06/06","08:20",0.0,22.5,69.6,1008.6,191.6,0.6,1.7,191.3,0.30,16.7,20.2,"08:15:36",1
"16/06/06","08:30",0.0,22.3,67.1,1008.3,173.4,1.0,2.5,219.3,0.32,15.9,20.4,"08:27:36",1
"16/06/06","08:40",0.0,23.2,65.2,1008.1,173.2,0.6,1.3,176.3,0.36,16.3,20.8,"08:36:48",1
"16/06/06","08:50",0.0,23.2,65.9,1007.8,150.6,0.6,1.6,75.8,0.33,16.5,20.8,"08:48:16",1
"16/06/06","09:00",0.0,24.3,64.9,1007.8,115.7,0.3,1.0,7.6,0.35,17.3,21.3,"08:50:08",1
"16/06/06","09:10",0.0,24.3,62.3,1007.4,12.0,0.7,1.7,59.1,0.37,16.7,21.2,"09:01:04",1
"16/06/06","09:20",0.0,25.0,60.2,1007.1,18.9,0.5,1.6,37.1,0.43,16.8,21.5,"09:14:24",1
"16/06/06","09:30",0.0,25.6,58.8,1007.8,42.0,0.5,1.7,344.2,0.49,17.0,21.9,"09:22:00",1
"16/06/06","09:40",0.0,25.5,57.1,1008.1,138.6,0.8,1.8,135.2,0.50,16.4,22.1,"09:39:28",1
"16/06/06","09:50",0.0,26.0,57.4,1008.3,176.5,1.1,2.7,192.7,0.49,17.0,22.3,"09:45:44",1
"16/06/06","10:00",0.0,26.2,61.4,1008.1,151.9,1.5,3.2,122.7,0.48,18.2,22.7,"09:56:32",1
"16/06/06","10:10",0.0,26.1,58.7,1008.3,145.3,1.2,2.5,197.7,0.42,17.4,23.1,"10:07:28",1
"16/06/06","10:20",0.0,26.6,55.9,1008.1,110.9,1.2,2.5,105.0,0.45,17.1,23.3,"10:16:40",1
"16/06/06","10:30",0.0,27.1,56.1,1007.8,123.7,1.1,3.4,136.2,0.46,17.6,23.4,"10:29:04",1
"16/06/06","10:40",0.0,27.2,54.3,1008.1,127.5,0.8,2.5,135.4,0.45,17.2,23.7,"10:36:00",1
"16/06/06","10:50",0.0,27.4,55.0,1008.1,138.7,1.3,3.4,49.4,0.54,17.6,24.1,"10:45:44",1
"16/06/06","11:00",0.0,27.8,54.2,1007.8,122.6,1.5,3.9,141.7,0.61,17.7,24.1,"10:54:48",1
"16/06/06","11:10",0.0,27.5,51.0,1007.8,99.6,1.3,4.1,145.1,0.58,16.5,24.1,"11:05:28",1
"16/06/06","11:20",0.0,27.9,51.6,1008.6,107.5,1.2,2.5,113.8,0.61,17.1,24.7,"11:16:00",1
"16/06/06","11:30",0.0,27.7,54.4,1007.8,140.3,1.8,4.8,132.8,0.55,17.7,24.7,"11:22:00",1
"16/06/06","11:40",0.0,27.6,56.7,1007.8,110.4,1.3,3.5,99.8,0.52,18.3,25.0,"11:36:08",1
"16/06/06","11:50",0.0,27.3,52.8,1007.8,89.9,1.5,3.9,28.9,0.45,16.9,25.1,"11:44:08",1
"16/06/06","12:00",0.0,27.8,51.2,1007.8,76.7,1.3,3.2,64.8,0.49,16.8,25.2,"11:53:28",1
"16/06/06","12:10",0.0,27.8,52.7,1007.6,109.7,1.5,4.2,132.9,0.54,17.3,25.4,"12:09:12",1
"16/06/06","12:20",0.0,27.5,50.6,1007.1,113.0,1.6,4.5,132.4,0.42,16.4,25.4,"12:11:04",1
"16/06/06","12:30",0.0,27.5,52.4,1007.4,101.0,1.2,2.6,130.3,0.37,16.9,25.6,"12:22:56",1
"16/06/06","12:40",0.0,27.8,50.2,1006.9,120.0,1.3,3.7,61.0,0.46,16.5,25.4,"12:30:24",1
"16/06/06","12:50",0.0,28.4,50.3,1006.9,103.9,1.2,3.5,88.5,0.46,17.1,25.5,"12:41:36",1
"16/06/06","13:00",0.0,28.3,46.2,1006.9,116.6,1.2,4.0,133.0,0.47,15.7,25.5,"12:57:28",1
"16/06/06","13:10",0.0,28.0,45.9,1006.7,102.3,1.3,3.5,112.1,0.42,15.3,25.4,"13:09:20",1
"16/06/06","13:20",0.0,28.3,46.4,1006.7,113.9,1.3,3.7,145.3,0.44,15.8,25.5,"13:13:36",1
"16/06/06","13:30",0.0,28.2,46.2,1006.7,92.5,1.2,3.9,357.4,0.29,15.6,25.5,"13:25:04",1
"16/06/06","13:40",0.0,27.8,45.6,1006.4,106.3,1.5,3.6,143.9,0.28,15.0,25.3,"13:30:16",1
"16/06/06","13:50",0.0,28.2,44.6,1006.7,86.7,1.3,3.3,90.0,0.31,15.1,25.2,"13:43:04",1
"16/06/06","14:00",0.0,28.2,44.6,1006.4,105.0,1.2,2.8,154.9,0.34,15.1,25.4,"13:56:00",1
"16/06/06","14:10",0.0,28.1,45.6,1006.4,88.6,1.1,2.1,6.1,0.25,15.3,25.1,"14:04:08",1
"16/06/06","14:20",0.0,28.0,47.9,1006.4,67.1,1.2,2.9,11.4,0.29,16.0,25.2,"14:14:56",1
"16/06/06","14:30",0.0,28.0,49.6,1006.0,84.2,1.1,2.4,127.7,0.26,16.5,25.3,"14:22:56",1
"16/06/06","14:40",0.0,27.9,48.0,1005.7,102.1,1.6,3.4,139.9,0.29,15.9,25.1,"14:31:20",1
"16/06/06","14:50",0.0,27.3,48.9,1005.5,80.5,1.5,4.4,75.7,0.18,15.7,25.2,"14:41:36",1
"16/06/06","15:00",0.0,27.0,51.2,1005.5,69.5,1.1,3.4,317.9,0.14,16.1,25.1,"14:55:28",1
"16/06/06","15:10",0.0,26.7,51.2,1005.5,91.6,1.2,2.8,102.1,0.11,15.8,25.0,"15:08:40",1
"16/06/06","15:20",0.0,26.6,51.3,1005.5,72.4,1.1,3.2,21.2,0.13,15.8,25.2,"15:10:40",1
"16/06/06","15:30",0.0,26.7,50.7,1006.0,89.9,1.2,3.6,13.3,0.15,15.7,24.9,"15:29:28",1
"16/06/06","15:40",0.0,26.6,51.1,1005.7,82.0,1.0,2.6,90.7,0.13,15.7,24.8,"15:31:52",1
"16/06/06","15:50",0.0,26.8,50.1,1005.7,90.4,1.1,4.1,66.1,0.19,15.6,24.8,"15:48:08",1
"16/06/06","16:00",0.0,27.0,49.9,1005.7,80.6,1.2,3.3,79.5,0.25,15.7,24.8,"15:57:04",1
"16/06/06","16:10",0.0,26.7,51.2,1006.0,103.4,1.3,3.3,92.6,0.20,15.8,24.9,"16:02:40",1
"16/06/06","16:20",0.0,26.4,51.6,1006.0,88.0,1.3,3.4,95.4,0.19,15.7,24.6,"16:14:24",1
"16/06/06","16:30",0.0,26.4,52.8,1006.4,92.2,1.1,2.4,51.8,0.18,16.0,24.7,"16:22:48",1
"16/06/06","16:40",0.0,26.2,53.1,1006.2,57.4,1.2,2.9,89.4,0.13,15.9,24.7,"16:37:36",1
"16/06/06","16:50",0.0,26.3,53.9,1006.4,87.8,1.0,4.2,53.6,0.11,16.3,24.5,"16:42:48",1
"16/06/06","17:00",0.0,25.9,54.0,1006.4,87.8,1.0,2.6,41.7,0.13,15.9,24.8,"16:52:56",1
"16/06/06","17:10",0.0,25.6,55.0,1006.2,69.0,1.2,3.4,52.1,0.09,15.9,24.5,"17:04:32",1
"16/06/06","17:20",0.0,25.8,55.6,1006.4,74.6,0.8,2.4,73.6,0.08,16.3,24.3,"17:13:04",1
"16/06/06","17:30",0.0,25.5,56.1,1006.7,66.8,0.8,2.2,85.3,0.05,16.2,24.3,"17:21:04",1
"16/06/06","17:40",0.0,25.3,58.1,1006.4,83.1,0.8,2.4,84.4,0.05,16.5,24.3,"17:39:20",1
"16/06/06","17:50",0.0,24.9,57.7,1006.9,90.1,1.3,2.7,86.9,0.04,16.0,24.2,"17:41:04",1
"16/06/06","18:00",0.0,24.8,59.8,1006.7,91.3,1.2,2.9,13.2,0.04,16.5,24.1,"17:54:32",1
"16/06/06","18:10",0.0,24.5,60.3,1006.7,94.0,1.1,2.7,114.8,0.03,16.3,24.0,"18:09:16",1
"16/06/06","18:20",0.0,24.2,61.0,1006.9,83.7,1.1,2.4,111.0,0.01,16.2,23.8,"18:18:00",1
"16/06/06","18:30",0.0,24.0,61.7,1007.1,53.1,1.2,3.2,67.6,0.00,16.2,24.0,"18:28:16",1
"16/06/06","18:40",0.0,23.7,62.5,1007.6,60.7,1.0,3.7,107.1,0.00,16.2,23.7,"18:39:44",1
"16/06/06","18:50",0.0,23.5,63.5,1007.4,24.7,1.1,3.2,351.6,0.00,16.2,23.4,"18:49:04",1
"16/06/06","19:00",0.0,23.3,65.2,1007.6,56.6,1.0,3.1,148.6,0.00,16.4,23.2,"18:55:44",1
"16/06/06","19:10",0.0,23.0,65.8,1007.8,27.6,0.8,2.4,329.1,0.00,16.3,23.4,"19:02:08",1
"16/06/06","19:20",0.0,22.8,66.2,1007.8,55.4,0.7,2.2,122.3,0.00,16.2,23.2,"19:12:56",1
"16/06/06","19:30",0.0,22.7,66.4,1008.1,11.0,0.7,1.9,104.7,0.00,16.2,23.2,"19:24:00",1
"16/06/06","19:40",0.0,22.5,66.9,1008.1,314.0,0.7,1.7,318.7,0.00,16.1,22.9,"19:30:40",1
"16/06/06","19:50",0.0,22.3,67.4,1008.1,44.8,0.5,1.1,150.0,0.00,16.0,22.8,"19:42:08",1
"16/06/06","20:00",0.0,22.2,67.6,1008.3,10.5,0.5,1.6,77.0,0.00,16.0,22.9,"19:59:12",1
"16/06/06","20:10",0.0,22.1,67.8,1008.6,55.6,0.7,2.4,148.5,0.00,15.9,22.7,"20:02:08",1
"16/06/06","20:20",0.0,22.0,68.1,1008.6,75.4,0.6,1.8,105.2,0.00,15.9,22.5,"20:13:28",1
"16/06/06","20:30",0.0,22.0,67.7,1008.6,39.2,0.7,2.0,154.9,0.00,15.8,22.5,"20:23:44",1
"16/06/06","20:40",0.0,22.0,67.7,1008.6,67.6,0.6,1.9,100.2,0.00,15.8,22.6,"20:32:40",1
"16/06/06","20:50",0.0,21.9,67.5,1008.8,93.7,0.6,1.9,94.5,0.00,15.7,22.3,"20:45:12",1
"16/06/06","21:00",0.0,21.9,67.1,1009.0,56.9,0.8,3.4,139.1,0.00,15.6,22.4,"20:50:40",1
"16/06/06","21:10",0.0,21.9,67.5,1009.0,51.2,0.6,1.7,58.2,0.00,15.7,22.4,"21:00:08",1
"16/06/06","21:20",0.0,21.7,68.1,1009.0,6.2,0.6,1.4,155.2,0.00,15.6,22.3,"21:16:56",1
"16/06/06","21:30",0.0,21.6,68.7,1009.5,54.9,0.5,2.2,58.5,0.00,15.6,22.2,"21:24:48",1
"16/06/06","21:40",0.0,21.5,69.3,1009.5,6.8,0.5,1.3,26.6,0.00,15.7,21.9,"21:37:52",1
"16/06/06","21:50",0.0,21.4,69.7,1009.5,347.9,0.6,1.6,105.6,0.00,15.7,22.0,"21:44:32",1
"16/06/06","22:00",0.0,21.4,69.2,1009.5,38.0,0.6,1.9,14.8,0.00,15.6,21.9,"21:54:32",1
"16/06/06","22:10",0.0,21.4,69.2,1009.7,24.8,0.8,2.1,64.0,0.00,15.6,21.9,"22:07:12",1
"16/06/06","22:20",0.0,21.3,69.4,1010.0,336.5,0.6,1.9,333.0,0.00,15.5,22.0,"22:10:48",1
"16/06/06","22:30",0.0,21.2,70.2,1009.7,349.5,0.5,1.1,9.6,0.00,15.6,21.7,"22:21:52",1
"16/06/06","22:40",0.0,21.2,70.0,1010.0,58.1,0.6,1.4,134.2,0.00,15.6,21.6,"22:32:56",1
"16/06/06","22:50",0.0,21.3,69.3,1009.7,8.8,0.7,2.1,348.3,0.00,15.5,21.7,"22:43:44",1
"16/06/06","23:00",0.0,21.1,69.8,1010.0,66.0,0.6,2.5,50.7,0.00,15.4,21.6,"22:56:00",1
"16/06/06","23:10",0.0,21.2,69.6,1009.7,10.7,0.7,2.2,353.4,0.00,15.5,21.5,"23:07:52",1
"16/06/06","23:20",0.0,21.1,70.7,1009.7,320.4,0.7,1.6,310.2,0.00,15.6,21.6,"23:12:16",1
"16/06/06","23:30",0.0,21.0,71.0,1010.0,343.7,1.0,2.6,347.0,0.00,15.6,21.4,"23:28:32",1
"16/06/06","23:40",0.0,20.9,71.0,1009.7,332.0,0.7,1.8,338.7,0.00,15.5,21.3,"23:39:20",1
"16/06/06","23:50",0.0,21.0,70.4,1010.0,15.2,0.7,1.4,36.9,0.00,15.5,21.5,"23:44:48",1
"16/06/06","24:00",0.0,21.0,70.3,1009.3,357.6,0.7,1.8,357.3,0.00,15.4,21.3,"23:50:32",1
